Simultaneous Nadir Overpasses (SNOs) Predictions

Prediction of SNOs between GOES-15 and NPP Satellite Orbit:

Table of predicted SNOs for the next 14.0 days since TLE Epoch: 2/17/2024
Index Date Time (GOES-15) GOES-15 Lat,Lon NPP Lat,Lon Distance(km) Time Diff (sec)
1 02/18/2024 21:18:26 0.01, 61.36 0.02, 61.41 6.23 80
2 02/21/2024 09:21:36 -0.01, 61.44 -0.20, 60.65 90.01 80
3 02/22/2024 09:05:32 -0.01, 61.43 0.86, 65.17 427.58 80
4 02/23/2024 21:27:18 0.01, 61.32 0.35, 59.91 160.74 80
5 02/24/2024 21:05:53 0.01, 61.31 -0.72, 64.44 356.60 80
6 02/26/2024 09:27:48 -0.01, 61.40 -0.51, 59.15 256.77 80
7 02/27/2024 09:11:42 -0.01, 61.40 0.51, 63.68 260.62 80
8 02/28/2024 21:33:30 0.01, 61.29 0.63, 58.41 327.82 80
9 02/29/2024 21:12:04 0.01, 61.29 -0.38, 62.94 189.10 80
